Flag for Norway Weather past 2 weeks in Hokksund, Norway

Now
41 °F

Passing clouds.


Feels Like: 32 °F
Forecast: 9 / 15 °F
Wind: 20 mph from Northwest

Location: Oslo / Fornebu

Current Time: Dec 25, 2014 at 11:49:50 PM

Latest Report: Dec 25, 2014 at 10:50 PM


Visibility: N/A

Pressure: 30.21 "Hg

Humidity: 66%

Dew point: 30 °F

Location of HokksundLocation

Historic Weather in Hokksund — Graph

°F

Hokksund temperature yesterday

Maximum temperature yesterday: 43 °F (at 2:50 AM)
Minimum temperature yesterday: 39 °F (at 1:50 PM)
Average temperature yesterday: 41 °F

Past Weeks' High & Low Weather Summary

 TemperatureHumidityPressure
High48 °F (Dec 14, 9:20 AM)100% (Dec 15, 9:20 PM)30.21 "Hg (Dec 15, 9:20 PM)
Low32 °F (Dec 15, 9:20 PM)41% (Dec 15, 11:20 AM)28.53 "Hg (Dec 11, 2:50 AM)
Average42 °F72%29.21 "Hg
* Reported Dec 10 10:20 PM — Dec 25 10:50 PM, Hokksund, Weather by CustomWeather, © 2014

Note: Actual official high and low records may vary slightly from our data, if they occured in-between our weather recording intervals... More about our weather records

Advertising

Hokksund weather history for previous 24 hours

 ConditionsComfort  
Time TempWeatherWind HumidityBarometerVisibility
10:50 PM
Dec 25
41 °FPassing clouds.20 mph66%30.21 "HgN/A
10:20 PM41 °FPassing clouds.21 mph70%30.21 "HgN/A
9:50 PM39 °FPassing clouds.21 mph70%30.21 "HgN/A
9:20 PM41 °FPassing clouds.20 mph70%30.18 "HgN/A
8:50 PM39 °FSprinkles. Passing clouds.17 mph70%30.18 "HgN/A
8:20 PM39 °FPassing clouds.20 mph70%30.18 "HgN/A
7:50 PM39 °FPassing clouds.18 mph70%30.21 "HgN/A
7:20 PM39 °FPassing clouds.20 mph70%30.21 "HgN/A
6:50 PM39 °FPassing clouds.17 mph75%30.21 "HgN/A
6:20 PM37 °FSprinkles. Passing clouds.22 mph75%30.18 "HgN/A
5:50 PM37 °FPassing clouds.3 mph87%30.21 "HgN/A
5:20 PM37 °FPassing clouds.2 mph87%30.21 "HgN/A
4:50 PM37 °FSprinkles. Partly cloudy.No wind87%30.21 "HgN/A
4:20 PM37 °FSprinkles. Passing clouds.No wind87%30.21 "HgN/A
3:50 PM36 °FSnow flurries. Partly cloudy.8 mph87%30.18 "HgN/A
3:20 PM39 °FLight rain. Passing clouds.3 mph75%30.18 "HgN/A
2:50 PM39 °FPassing clouds.2 mph75%30.18 "HgN/A
2:20 PM39 °FScattered clouds.2 mph75%30.18 "HgN/A
1:50 PM39 °FChilly.2 mph75%30.18 "HgN/A
1:20 PM39 °FPassing clouds.6 mph75%30.18 "HgN/A
12:50 PM37 °FSprinkles. Broken clouds.12 mph87%30.15 "HgN/A
12:20 PM37 °FRain. Partly sunny.6 mph81%30.15 "HgN/A
11:50 AM39 °FPartly sunny.6 mph75%30.15 "HgN/A
11:20 AM37 °FSprinkles. Scattered clouds.5 mph81%30.15 "HgN/A
10:50 AM39 °FDrizzle. Partly sunny.17 mph70%30.12 "HgN/A
10:20 AM41 °FPartly sunny.10 mph53%30.12 "HgN/A
9:50 AM41 °FPassing clouds.14 mph53%30.12 "HgN/A
9:20 AM41 °FQuite cool.16 mph53%30.09 "HgN/A
8:50 AM39 °FPassing clouds.18 mph52%30.09 "HgN/A
8:20 AM39 °FChilly.20 mph48%30.07 "HgN/A
7:50 AM39 °FChilly.21 mph48%30.07 "HgN/A
7:20 AM39 °FChilly.22 mph45%30.04 "HgN/A
6:50 AM39 °FChilly.23 mph45%30.01 "HgN/A
6:20 AM39 °FChilly.25 mph45%30.01 "HgN/A
5:50 AM39 °FChilly.28 mph42%29.98 "HgN/A
5:20 AM39 °FChilly.28 mph48%29.98 "HgN/A
4:50 AM39 °FChilly.29 mph45%29.98 "HgN/A
4:20 AM39 °FPassing clouds.29 mph45%29.95 "HgN/A
3:50 AM39 °FChilly.29 mph45%29.95 "HgN/A
3:20 AM39 °FChilly.29 mph52%29.92 "HgN/A
2:50 AM39 °FPassing clouds.30 mph45%29.92 "HgN/A
2:20 AM39 °FPassing clouds.31 mph52%29.89 "HgN/A
1:50 AM39 °FPassing clouds.31 mph42%29.86 "HgN/A
1:20 AM39 °FPassing clouds.32 mph48%29.86 "HgN/A
12:50 AM39 °FPassing clouds.33 mph45%29.83 "HgN/A
12:20 AM39 °FPassing clouds.35 mph45%29.83 "HgN/A
11:50 PM
Dec 24
39 °FPassing clouds.35 mph48%29.80 "HgN/A
11:20 PM39 °FPassing clouds.35 mph52%29.80 "HgN/A
Weather by CustomWeather, © 2014

See weather overviewHow to use our weather pages